Weather in Baltika

Russia / Republic of Bashkortostan     54°46′18″N   56°32′12″E
temp.,
°C
wind,
m/s
gust,
m/s
humid.,
%
clouds,
%
prec.,
mm/h
press.,
hPa
HPBL,
m
27 february, sat
sat2723:00−19sse239667 0.0 102120
02:00−19se349152 0.0 101749
05:00−17se5118477 0.0 1014321
08:00−14se71494100 0.6 1010657
11:00−12sse61193100 2.3 1008661
14:00−10sse5989100 0.5 1005844
17:00−10se61091100 0.8 1004566
20:00−10ese51094100 0.2 1003376
28 february, sun
sun2823:00−10ese4795100 0.6 1002214
02:00−10e469599 0.8 1001172
05:00−9e3596100 1.8 1000150
08:00−8ene3496100 0.9 1000126
11:00−6ene2395100 1.6 1000183
14:00−3n2393100 0.5 1000298
17:00−4nnw459599 0.8 1002339
20:00−7nw359793 0.1 100595
1 march, mon
mon123:00−9nnw239693 0.4 100874
02:00−11nw229694 0.4 101041
05:00−13wnw229692 0.7 101337
08:00−14wnw249793 0.2 101491
11:00−13wnw339394 0.4 1016280
14:00−11wnw3388100 0.1 1016482
17:00−11w3493100 0.3 1017357
20:00−15w3597100 0.2 1019110
2 march, tue
tue223:00−17w2297100 0.3 102033
02:00−19wsw3398100 0.1 101953
05:00−20sw2399100 0.2 101939
08:00−22s3499100 0.1 101974
11:00−19s579698 0.1 1017274
14:00−16s699288 0.0 1014380
17:00−14s7129090 0.0 1012438
20:00−15s81489100 0.0 1011427
3 march, wed
wed323:00−16s81494100 0.6 1010500
02:00−16s81494100 0.7 1008431
05:00−14s71394100 1.4 1007447
08:00−11s61295100 1.2 1004507
11:00−7s51194100 2.2 1002544
14:00−3s61094100 1.1 1001691
17:00−1s5997100 2.4 1000579
20:00−2ssw3698100 1.4 1000271